Погода в Солапуре

Индия     17°40′16″N   75°54′24″E
темп.,
°C
ветер,
м/с
пор.,
м/с
влажн.,
%
обл.,
%
осадки,
мм/ч
давл.,
гПа
погр.,
м
6 марта, сб
сб623:30+27всв23160 0.0 101425
02:30+25вюв45180 0.0 101329
05:30+20юв12240 0.0 101323
08:30+27вюв33160 0.0 1016140
11:30+34ююз00110 0.0 10151899
14:30+36ссз1290 0.0 10103143
17:30+36ссз3380 0.0 10093418
20:30+30св34110 0.0 101124
7 марта, вс
вс723:30+28св56120 0.0 101371
02:30+23зюз34160 0.0 101141
05:30+23с23170 0.0 101124
08:30+29в11110 0.0 1014201
11:30+35юв2380 0.0 10132210
14:30+37вюв2270 0.0 10093312
17:30+37всв1170 0.0 10073404
20:30+29св11120 0.0 101024
8 марта, пн
пн823:30+28в56110 0.0 101155
02:30+26вюв45130 0.0 101037
05:30+21ссв12190 0.0 101123
08:30+27в23170 0.0 1014244
11:30+35ю45130 0.0 10132037
14:30+38ююв3390 0.0 10093939
17:30+37ю3380 0.0 10073961
20:30+30юв45130 0.0 101052
9 марта, вт
вт923:30+27вюв34176 0.0 101227
02:30+25ююв45260 0.0 101146
05:30+23юв45353 0.0 101153
08:30+29ююв67260 0.0 1014331
11:30+36ю66140 0.0 10132325
14:30+38юв33100 0.0 10093859
17:30+38ююв2290 0.0 10084214
20:30+31юв451615 0.0 101075
10 марта, ср
ср1023:30+28ююв45207 0.0 101267
02:30+26юв342339 0.0 101134
05:30+24ю452619 0.0 101158
08:30+29ю23210 0.0 1014360
11:30+36ююз55120 0.0 10132580
14:30+38ююз23100 0.0 10084217
17:30+38ююз23107 0.0 10074282
20:30+32ююв231582 0.0 100942